Flag for Canada Weather past 2 weeks in Surrey, British Columbia, Canada

Now
60 °F

Cool.


Feels Like: 60 °F
Forecast: 59 / 65 °F
Wind: 3 mph from East

Location: P. Meadows Coastal Station

Current Time: Aug 28, 2015 at 8:16:09 AM

Latest Report: Aug 28, 2015 at 7:00 AM


Visibility: N/A

Pressure: 29.94 "Hg

Humidity: 95%

Dew point: 59 °F

Location of SurreyLocation

Historic Weather in Surrey — Graph

°F

Surrey temperature yesterday

Maximum temperature yesterday: 83 °F (at 6:00 PM)
Minimum temperature yesterday: 54 °F (at 3:00 AM)
Average temperature yesterday: 69 °F

Past Weeks' High & Low Weather Summary

 TemperatureHumidityPressure
High88 °F (Aug 18, 5:00 PM)99% (Aug 22, 2:00 AM)30.27 "Hg (Aug 22, 2:00 AM)
Low50 °F (Aug 25, 5:00 AM)24% (Aug 27, 4:00 PM)29.80 "Hg (Aug 19, 8:00 PM)
Average66 °F67%30.02 "Hg
* Reported Aug 13 7:00 AM — Aug 28 7:00 AM, Surrey, Weather by CustomWeather, © 2015

Note: Actual official high and low records may vary slightly from our data, if they occured in-between our weather recording intervals... More about our weather records

Advertising

Surrey weather history for previous 24 hours

 ConditionsComfort  
Time TempWeatherWind HumidityBarometerVisibility
7:00 AM
Fri, Aug 28
60 °FCool.3 mph95%29.94 "HgN/A
6:00 AM60 °FCool.2 mph94%29.94 "HgN/A
5:00 AM61 °FCool.No wind93%29.95 "HgN/A
4:00 AM60 °FCool.5 mph92%29.94 "HgN/A
3:00 AM63 °FMild.3 mph86%29.94 "HgN/A
2:00 AM63 °FMild.2 mph85%29.96 "HgN/A
1:00 AM65 °FMild.3 mph71%29.96 "HgN/A
12:00 AM66 °FMild.1 mph62%29.93 "HgN/A
11:00 PM
Thu, Aug 27
66 °FMild.1 mph68%29.94 "HgN/A
10:00 PM66 °FMild.No wind59%29.93 "HgN/A
9:00 PM71 °FMild.1 mph46%29.93 "HgN/A
8:00 PM77 °FMild.2 mph33%29.94 "HgN/A
7:00 PM81 °FPleasantly warm.3 mph25%29.94 "HgN/A
6:00 PM83 °FPleasantly warm.3 mph27%29.96 "HgN/A
5:00 PM82 °FPleasantly warm.5 mph28%29.98 "HgN/A
4:00 PM82 °FPleasantly warm.3 mph24%30.00 "HgN/A
3:00 PM82 °FPleasantly warm.3 mph25%30.02 "HgN/A
2:00 PM81 °FPleasantly warm.3 mph31%30.04 "HgN/A
1:00 PM80 °FPleasantly warm.2 mph33%30.05 "HgN/A
12:00 PM76 °FMild.2 mph38%30.06 "HgN/A
11:00 AM74 °FMild.2 mph43%30.07 "HgN/A
10:00 AM70 °FMild.3 mph55%30.08 "HgN/A
9:00 AM65 °FMild.1 mph65%30.08 "HgN/A
8:00 AM62 °FCool.No wind77%30.07 "HgN/A
Weather by CustomWeather, © 2015

See weather overviewHow to use our weather pages